CW1734 Weather Reports


Display with metric or nautical units.
time (UTC)temp
F
wind
direction
speed
MPH
gust
MPH
rain 1hr
in
rain 24hr
in
rain mn
in
humidity
%
barometer
mb
20260503022403 53 273 0.0 0.0 0.00 0.18 0.00 94 1009.3
20260503021903 53 270 0.0 0.0 0.00 0.18 0.00 94 1009.3
20260503021404 53 270 0.0 0.0 0.00 0.18 0.00 94 1009.3
20260503020903 53 270 0.0 0.0 0.00 0.18 0.00 94 1009.3
20260503020403 53 272 0.0 0.0 0.00 0.18 0.00 94 1009.3
20260503015903 53 272 0.0 0.0 0.00 0.18 0.00 94 1009.3
20260503015404 53 272 0.0 0.0 0.00 0.18 0.00 94 1009.3
20260503014903 53 272 1.0 2.0 0.00 0.18 0.00 94 1009.5
20260503014403 53 273 1.0 2.0 0.00 0.18 0.00 94 1009.5
20260503013403 53 233 0.0 0.0 0.00 0.18 0.00 94 1009.5
20260503012903 53 235 0.0 0.0 0.00 0.18 0.00 94 1009.5
20260503012403 53 235 1.0 3.0 0.00 0.18 0.00 94 1009.5
20260503011903 53 266 1.0 3.0 0.00 0.18 0.00 94 1009.7
20260503011404 53 252 1.0 5.0 0.00 0.18 0.00 94 1009.7
20260503010903 53 277 1.0 5.0 0.00 0.18 0.00 94 1009.7
20260503010403 53 214 2.0 5.0 0.00 0.18 0.00 94 1009.7
20260503005903 53 280 3.0 5.0 0.00 0.18 0.00 94 1009.7
20260503005403 53 266 1.0 5.0 0.00 0.18 0.00 94 1009.7
20260503004903 53 273 2.0 6.0 0.00 0.18 0.00 94 1009.9
20260503004404 53 271 0.0 0.0 0.00 0.18 0.00 94 1009.9
20260503003403 53 221 0.0 3.0 0.00 0.18 0.00 94 1010.1
20260503002903 53 214 2.0 3.0 0.00 0.18 0.00 94 1010.1
20260503002403 53 218 2.0 3.0 0.00 0.18 0.00 94 1010.3
20260503001903 53 220 3.0 6.0 0.00 0.18 0.00 94 1010.3
20260503001403 53 221 1.0 5.0 0.00 0.18 0.00 94 1010.3
20260503000903 53 262 2.0 3.0 0.00 0.18 0.00 94 1010.3
20260503000403 53 250 0.0 5.0 0.00 0.18 0.00 94 1010.3
20260502235903 53 270 1.0 5.0 0.00 0.18 0.00 94 1010.3
20260502235403 53 270 2.0 6.0 0.00 0.18 0.00 94 1010.3
20260502234904 52 252 0.0 0.0 0.00 0.18 0.00 94 1010.3
20260502234403 52 226 0.0 0.0 0.00 0.18 0.00 94 1010.3
20260502233903 52 180 0.0 0.0 0.00 0.18 0.00 94 1010.3
20260502233403 51 180 0.0 0.0 0.00 0.18 0.00 94 1010.3
20260502232403 51 175 0.0 0.0 0.00 0.18 0.00 93 1010.3
20260502231904 51 171 0.0 0.0 0.00 0.18 0.00 94 1010.3
20260502231404 51 154 0.0 0.0 0.00 0.18 0.00 94 1010.5
20260502230403 51 191 0.0 0.0 0.00 0.18 0.00 94 1010.5
20260502225904 51 176 0.0 0.0 0.00 0.18 0.18 94 1010.5
20260502225404 51 195 0.0 3.0 0.00 0.18 0.18 94 1010.5
20260502224903 51 210 2.0 3.0 0.00 0.18 0.18 94 1010.5
20260502224403 50 168 1.0 3.0 0.00 0.18 0.18 94 1010.5
20260502223403 49 60 0.0 0.0 0.00 0.18 0.18 93 1010.5
20260502222904 49 60 0.0 0.0 0.00 0.18 0.18 93 1010.5
20260502221903 49 60 0.0 0.0 0.00 0.18 0.18 93 1010.5
20260502221403 49 60 0.0 0.0 0.00 0.18 0.18 93 1010.5
20260502220904 49 60 0.0 0.0 0.00 0.18 0.18 93 1010.5
20260502215903 50 60 0.0 0.0 0.00 0.18 0.18 93 1010.5
20260502215403 50 60 0.0 0.0 0.00 0.18 0.18 93 1010.5
20260502214403 50 60 0.0 0.0 0.00 0.18 0.18 93 1010.6
20260502213904 50 60 0.0 0.0 0.00 0.18 0.18 93 1010.6
20260502213403 50 60 0.0 2.0 0.00 0.18 0.18 93 1010.6
20260502212903 50 67 0.0 0.0 0.00 0.18 0.18 92 1010.6
20260502212403 50 65 0.0 3.0 0.00 0.18 0.18 92 1010.6
20260502211903 50 86 0.0 0.0 0.00 0.18 0.18 93 1010.7
20260502210403 50 131 0.0 0.0 0.00 0.18 0.18 92 1010.7
20260502205904 50 135 0.0 0.0 0.00 0.18 0.18 92 1010.6
20260502204903 50 135 0.0 0.0 0.00 0.18 0.18 92 1010.8
20260502204403 51 135 0.0 0.0 0.00 0.18 0.18 92 1010.8
20260502203903 51 135 0.0 0.0 0.00 0.18 0.18 92 1010.7
20260502203403 51 135 0.0 0.0 0.00 0.18 0.18 92 1010.7
20260502201903 52 135 0.0 0.0 0.00 0.18 0.18 91 1010.7
20260502200903 52 146 0.0 0.0 0.00 0.18 0.18 91 1010.8
20260502200403 52 147 0.0 0.0 0.00 0.18 0.18 91 1010.8
20260502195903 52 147 0.0 0.0 0.00 0.18 0.18 91 1010.8
20260502195403 52 147 0.0 0.0 0.00 0.18 0.18 91 1010.8
20260502193903 53 181 3.0 6.0 0.00 0.18 0.18 91 1010.8
20260502193403 53 175 1.0 5.0 0.00 0.18 0.18 91 1010.6
20260502192903 53 168 2.0 3.0 0.00 0.18 0.18 90 1010.6
20260502192403 53 186 1.0 5.0 0.00 0.18 0.18 90 1010.6
20260502191903 53 163 1.0 5.0 0.00 0.18 0.18 90 1010.6
20260502191403 54 119 0.0 0.0 0.00 0.18 0.18 89 1010.6
20260502190403 54 119 0.0 0.0 0.00 0.18 0.18 89 1010.6
20260502185903 55 119 0.0 0.0 0.00 0.18 0.18 89 1010.6
20260502185403 55 112 0.0 0.0 0.00 0.18 0.18 88 1010.6
20260502184903 55 95 1.0 3.0 0.00 0.18 0.18 88 1010.6
20260502184403 55 162 2.0 6.0 0.00 0.18 0.18 88 1010.6
20260502183903 55 111 3.0 7.0 0.00 0.18 0.18 88 1010.6
20260502183403 55 118 3.0 7.0 0.00 0.18 0.18 88 1010.6
20260502182903 55 106 4.0 8.0 0.00 0.18 0.18 88 1010.7
20260502181903 56 137 5.0 9.0 0.00 0.18 0.18 88 1010.7
20260502180903 56 188 3.0 8.0 0.00 0.18 0.18 88 1010.9
20260502180403 57 71 5.0 9.0 0.00 0.18 0.18 88 1010.9
20260502170403 56 100 2.0 6.0 0.00 0.18 0.18 89 1011.7
20260502162903 56 113 4.0 7.0 0.00 0.18 0.18 89 1012.1
20260502162403 57 105 3.0 7.0 0.00 0.18 0.18 89 1012.1
20260502161903 57 85 4.0 9.0 0.00 0.18 0.18 89 1012.1
20260502161404 57 99 2.0 6.0 0.00 0.18 0.18 89 1012.1
20260502160403 57 50 1.0 3.0 0.00 0.18 0.18 89 1012.1
20260502151903 55 96 3.0 7.0 0.02 0.18 0.18 90 1012.7
20260502150903 54 48 1.0 5.0 0.08 0.18 0.18 90 1012.7
20260502150403 55 68 0.0 0.0 0.10 0.18 0.18 90 1012.7
20260502123403 64 125 3.0 8.0 0.00 0.00 0.00 63 1014.5
20260502122903 64 88 6.0 12.0 0.00 0.00 0.00 61 1014.9
20260502121903 66 116 3.0 9.0 0.00 0.00 0.00 61 1014.9
20260502121403 67 98 3.0 9.0 0.00 0.00 0.00 60 1015.0
20260502120902 67 136 3.0 7.0 0.00 0.00 0.00 61 1015.0
20260502120403 66 63 3.0 8.0 0.00 0.00 0.00 61 1015.0
20260502115903 66 75 3.0 7.0 0.00 0.00 0.00 62 1015.0
20260502115403 66 74 5.0 8.0 0.00 0.00 0.00 62 1015.0
20260502114903 66 93 3.0 8.0 0.00 0.00 0.00 67 1015.2
20260502114403 66 116 5.0 12.0 0.00 0.00 0.00 67 1015.3
20260502113403 65 79 4.0 8.0 0.00 0.00 0.00 72 1015.3
20260502112903 64 23 5.0 8.0 0.00 0.00 0.00 73 1015.6
20260502112403 64 31 6.0 8.0 0.00 0.00 0.00 74 1015.6
20260502111903 64 353 5.0 8.0 0.00 0.00 0.00 74 1015.6
20260502111403 63 17 5.0 8.0 0.00 0.00 0.00 74 1016.1
20260502110903 63 40 6.0 8.0 0.00 0.00 0.00 74 1016.1
20260502105903 63 21 6.0 10.0 0.00 0.00 0.00 76 1016.1
20260502105403 62 47 6.0 10.0 0.00 0.00 0.00 77 1016.1
20260502104903 62 34 6.0 10.0 0.00 0.00 0.00 77 1016.5
20260502104402 62 34 5.0 8.0 0.00 0.00 0.00 78 1016.5
20260502103903 62 33 7.0 10.0 0.00 0.00 0.00 78 1016.5
20260502102903 62 26 5.0 8.0 0.00 0.00 0.00 79 1016.5
20260502101903 60 26 5.0 8.0 0.00 0.00 0.00 79 1016.5
20260502100903 62 52 3.0 7.0 0.00 0.00 0.00 80 1016.8
20260502100403 61 29 3.0 9.0 0.00 0.00 0.00 82 1016.8
20260502091403 60 351 3.0 5.0 0.00 0.00 0.00 82 1017.4
20260502090403 57 337 0.0 3.0 0.00 0.00 0.00 85 1017.4
20260502071403 53 135 0.0 0.0 0.00 0.00 0.00 92 1018.1
20260502070903 53 171 0.0 0.0 0.00 0.00 0.00 92 1018.1
20260502065903 53 152 0.0 0.0 0.00 0.00 0.00 92 1018.1
20260502065403 53 85 0.0 1.0 0.00 0.00 0.00 92 1018.1
20260502064903 53 91 0.0 0.0 0.00 0.00 0.00 92 1018.1
20260502064402 53 164 0.0 0.0 0.00 0.00 0.00 92 1018.1
20260502063903 53 150 0.0 0.0 0.00 0.00 0.00 92 1017.9
20260502063404 53 112 0.0 1.0 0.00 0.00 0.00 92 1017.9
20260502062903 53 112 0.0 0.0 0.00 0.00 0.00 92 1017.9
20260502062403 52 112 0.0 0.0 0.00 0.00 0.00 92 1017.9
20260502061903 52 112 0.0 0.0 0.00 0.00 0.00 92 1018.0
20260502061403 52 250 0.0 0.0 0.00 0.00 0.00 92 1018.0
20260502060903 52 250 0.0 0.0 0.00 0.00 0.00 92 1018.0
20260502060402 52 250 0.0 1.0 0.00 0.00 0.00 92 1018.0
20260502055903 52 281 0.0 1.0 0.00 0.00 0.00 92 1017.9
20260502054903 52 289 2.0 3.0 0.00 0.00 0.00 92 1017.9
20260502054403 52 291 2.0 3.0 0.00 0.00 0.00 92 1018.0
20260502053903 52 291 2.0 3.0 0.00 0.00 0.00 92 1018.0
20260502052403 52 298 0.0 0.0 0.00 0.00 0.00 92 1018.0
20260502051903 52 298 0.0 0.0 0.00 0.00 0.00 92 1018.0
20260502051403 52 298 0.0 5.0 0.00 0.00 0.00 92 1018.0
20260502050902 52 255 0.0 0.0 0.00 0.00 0.00 92 1018.0
20260502050403 52 244 0.0 2.0 0.00 0.00 0.00 92 1018.0
20260502045903 52 256 2.0 5.0 0.00 0.00 0.00 92 1018.0
20260502045403 52 237 0.0 2.0 0.00 0.00 0.00 92 1018.2
20260502044903 52 276 0.0 0.0 0.00 0.00 0.00 92 1018.2
20260502043403 52 276 0.0 0.0 0.00 0.00 0.00 92 1018.2
20260502042903 52 276 0.0 2.0 0.00 0.00 0.00 92 1018.2
20260502042403 52 276 0.0 2.0 0.00 0.00 0.00 92 1018.2
20260502041403 52 284 2.0 5.0 0.00 0.00 0.00 92 1018.2
20260502040403 52 243 0.0 0.0 0.00 0.00 0.00 92 1018.2
20260502035903 52 226 0.0 0.0 0.00 0.00 0.00 92 1018.2
20260502035403 52 226 0.0 0.0 0.00 0.00 0.00 92 1018.2
20260502034903 52 197 2.0 5.0 0.00 0.00 0.00 92 1018.2
20260502033903 51 222 2.0 5.0 0.00 0.00 0.00 92 1018.2
20260502033403 51 218 1.0 3.0 0.00 0.00 0.00 92 1018.2
20260502032903 51 216 0.0 2.0 0.00 0.00 0.00 92 1018.3
20260502032403 51 217 0.0 0.0 0.00 0.00 0.00 92 1018.3
20260502031903 51 216 0.0 3.0 0.00 0.00 0.00 92 1018.3
20260502031403 51 210 2.0 5.0 0.00 0.00 0.00 92 1018.7
20260502030903 51 224 0.0 3.0 0.00 0.00 0.00 92 1018.7
20260502025403 51 213 1.0 5.0 0.00 0.00 0.00 92 1018.7
20260502024403 50 206 0.0 2.0 0.00 0.00 0.00 92 1018.7
20260502023403 50 215 2.0 3.0 0.00 0.00 0.00 92 1018.7